Retour au catalogue

IRIDE-MS1-EAG2-7

ActifScienceSSO
NORAD 66701·PAYLOAD·🇮🇹 Italy

Lancé Nov 28, 2025 depuis Vandenberg Space Force Base

Loading…

Prochains Passages (prochaines 24 heures)

TLE

FraisSource: Space-Track

Époque: Sep 14, 2026, 11:31 UTC

1 66701U 25276AM  26257.48021476  .00004982  00000-0  22744-3 0  9991
2 66701  97.4143 329.7151 0005918  63.6295 296.5548 15.21040440 43997

Suivez IRIDE-MS1-EAG2-7 en temps réel avec AllMySat

Download on the App Store